sat.trackr.live / text

‹ back to catalog

STARLINK-31873

NORAD 59790 · 2024-093J

PAYLOAD ACTIVE UNKNOWN

§ Identity

Operator
Country
US
Launch date
2024-05-18
Launch site
AFETR
Launch vehicle
Mass (kg)
RCS (m²)

Purposes: comms

External: N2YO · Heavens-Above · Gunter

§ Orbital elements

Epoch: 2026-09-21T11:58:55.879968Z

Period
94.27 min
Inclination
43.0052°
Eccentricity
0.0000992
Mean motion
15.27574144 rev/d
Perigee alt
482.4 km
Apogee alt
483.7 km
Semi-major
6,861.2 km
B*
9.6744e-5
RAAN
182.9223°
Arg perigee
264.1981°
Mean anomaly
95.8758°
Rev number
13,264

§ Raw data

STARLINK-318731 59790U 24093J   26264.49925787  .00002401  00000+0  96744-4 0  99992 59790  43.0052 182.9223 0000992 264.1981  95.8758 15.27574144132642

JSON: /api/v1/satellites/59790 · /tle

For live sub-satellite position, see the globe view (requires WebGL).

§ Visibility from observer

Set your observer location to see the next 7 days of passes ≥ 10°. The values pass through the URL so the page stays shareable.

No JS? Fill the form by hand. The geolocation button needs JavaScript.